Stündliche Wetter Otrishky

Heute, 14 April, Mittwoch

Zeit Temperatur Niederschläge Wind Luftdruck Luftfeuchtigkeit
00:00 +7°C° 0 mm 1 m/S 749 mmHg 90%
01:00 +7°C° 0 mm 1 m/S 749 mmHg 90%
02:00 +6°C° 0 mm 0 m/S 749 mmHg 90%
03:00 +6°C° 0 mm 0 m/S 749 mmHg 90%
04:00 +6°C° 0 mm 1 m/S 748 mmHg 90%
05:00 +6°C° 0 mm 1 m/S 748 mmHg 89%
06:00 +8°C° 0 mm 1 m/S 748 mmHg 84%
07:00 +9°C° 0 mm 1 m/S 748 mmHg 79%
08:00 +10°C° 0 mm 1 m/S 748 mmHg 75%
09:00 +11°C° 0.1 mm 1 m/S 747 mmHg 72%
10:00 +12°C° 0.1 mm 1 m/S 747 mmHg 69%
11:00 +12°C° 0.1 mm 1 m/S 747 mmHg 66%
12:00 +13°C° 0.1 mm 1 m/S 747 mmHg 66%
13:00 +13°C° 0.1 mm 1 m/S 747 mmHg 66%
14:00 +13°C° 0.1 mm 1 m/S 746 mmHg 66%
15:00 +13°C° 0 mm 2 m/S 746 mmHg 64%
16:00 +14°C° 0 mm 2 m/S 746 mmHg 61%
17:00 +14°C° 0 mm 2 m/S 746 mmHg 59%
18:00 +13°C° 0 mm 2 m/S 746 mmHg 64%
19:00 +10°C° 0 mm 3 m/S 746 mmHg 69%
20:00 +9°C° 0 mm 3 m/S 746 mmHg 74%
21:00 +8°C° 0 mm 3 m/S 746 mmHg 78%
22:00 +7°C° 0 mm 3 m/S 745 mmHg 81%
23:00 +7°C° 0 mm 3 m/S 745 mmHg 85%

Morgen, 15 April, Donnerstag

Zeit Temperatur Niederschläge Wind Luftdruck Luftfeuchtigkeit
00:00 +7°C° 0 mm 3 m/S 745 mmHg 86%
01:00 +7°C° 0 mm 3 m/S 745 mmHg 86%
02:00 +7°C° 0 mm 3 m/S 745 mmHg 87%
03:00 +5°C° 0 mm 3 m/S 745 mmHg 89%
04:00 +5°C° 0 mm 3 m/S 745 mmHg 92%
05:00 +5°C° 0 mm 3 m/S 745 mmHg 95%
06:00 +7°C° 0 mm 3 m/S 745 mmHg 90%
07:00 +8°C° 0 mm 3 m/S 745 mmHg 86%
08:00 +7°C° 0 mm 4 m/S 745 mmHg 82%
09:00 +10°C° 0.1 mm 4 m/S 745 mmHg 75%
10:00 +12°C° 0.1 mm 5 m/S 745 mmHg 68%
11:00 +14°C° 0.1 mm 6 m/S 744 mmHg 61%
12:00 +14°C° 0.4 mm 6 m/S 744 mmHg 59%
13:00 +14°C° 0.4 mm 6 m/S 744 mmHg 57%
14:00 +14°C° 0.4 mm 6 m/S 744 mmHg 55%
15:00 +14°C° 0.1 mm 6 m/S 744 mmHg 55%
16:00 +14°C° 0.1 mm 6 m/S 744 mmHg 55%
17:00 +13°C° 0.1 mm 6 m/S 744 mmHg 55%
18:00 +12°C° 0 mm 5 m/S 744 mmHg 62%
19:00 +9°C° 0 mm 5 m/S 744 mmHg 69%
20:00 +7°C° 0 mm 4 m/S 745 mmHg 76%
21:00 +8°C° 0 mm 3 m/S 745 mmHg 80%
22:00 +7°C° 0 mm 3 m/S 745 mmHg 84%
23:00 +5°C° 0 mm 3 m/S 745 mmHg 87%

übermorgen, 16 April, Freitag

Zeit Temperatur Niederschläge Wind Luftdruck Luftfeuchtigkeit
00:00 +5°C° 0 mm 3 m/S 745 mmHg 88%
01:00 +4°C° 0 mm 3 m/S 745 mmHg 89%
02:00 +4°C° 0 mm 3 m/S 745 mmHg 89%
03:00 +4°C° 0 mm 3 m/S 745 mmHg 89%
04:00 +4°C° 0 mm 3 m/S 745 mmHg 88%
05:00 +4°C° 0 mm 4 m/S 745 mmHg 88%
06:00 +5°C° 0 mm 4 m/S 745 mmHg 86%
07:00 +6°C° 0 mm 4 m/S 745 mmHg 83%
08:00 +7°C° 0 mm 4 m/S 746 mmHg 81%
09:00 +7°C° 0 mm 5 m/S 746 mmHg 79%
10:00 +8°C° 0 mm 5 m/S 746 mmHg 77%
11:00 +8°C° 0 mm 5 m/S 746 mmHg 75%
12:00 +9°C° 0.1 mm 5 m/S 746 mmHg 72%
13:00 +10°C° 0.1 mm 4 m/S 746 mmHg 68%
14:00 +11°C° 0.1 mm 4 m/S 746 mmHg 64%
15:00 +11°C° 0.3 mm 4 m/S 746 mmHg 65%
16:00 +11°C° 0.3 mm 4 m/S 746 mmHg 66%
17:00 +10°C° 0.3 mm 4 m/S 746 mmHg 67%
18:00 +10°C° 0.5 mm 4 m/S 747 mmHg 72%
19:00 +8°C° 0.5 mm 4 m/S 747 mmHg 77%
20:00 +7°C° 0.5 mm 4 m/S 747 mmHg 82%
21:00 +7°C° 0 mm 3 m/S 747 mmHg 84%
22:00 +5°C° 0 mm 3 m/S 747 mmHg 86%
23:00 +4°C° 0 mm 3 m/S 747 mmHg 88%

17 April, Samstag

Zeit Temperatur Niederschläge Wind Luftdruck Luftfeuchtigkeit
00:00 +4°C° 0 mm 3 m/S 748 mmHg 90%
01:00 +3°C° 0 mm 3 m/S 748 mmHg 91%
02:00 +2°C° 0 mm 3 m/S 748 mmHg 92%
03:00 +3°C° 0 mm 2 m/S 748 mmHg 93%
04:00 +3°C° 0 mm 2 m/S 748 mmHg 94%
05:00 +2°C° 0 mm 2 m/S 748 mmHg 95%
06:00 +4°C° 0 mm 2 m/S 749 mmHg 88%
07:00 +5°C° 0 mm 2 m/S 749 mmHg 81%
08:00 +7°C° 0 mm 3 m/S 749 mmHg 74%
09:00 +7°C° 0 mm 3 m/S 749 mmHg 71%
10:00 +8°C° 0 mm 3 m/S 749 mmHg 67%
11:00 +9°C° 0 mm 3 m/S 749 mmHg 64%
12:00 +9°C° 0 mm 3 m/S 749 mmHg 66%
13:00 +9°C° 0 mm 3 m/S 749 mmHg 68%
14:00 +9°C° 0 mm 3 m/S 750 mmHg 69%
15:00 +8°C° 0 mm 3 m/S 750 mmHg 70%
16:00 +8°C° 0 mm 2 m/S 749 mmHg 71%
17:00 +8°C° 0 mm 2 m/S 749 mmHg 72%
18:00 +8°C° 0 mm 2 m/S 749 mmHg 75%
19:00 +8°C° 0 mm 2 m/S 749 mmHg 78%
20:00 +8°C° 0 mm 1 m/S 749 mmHg 81%
21:00 +8°C° 0 mm 1 m/S 749 mmHg 80%
22:00 +8°C° 0 mm 1 m/S 749 mmHg 79%
23:00 +8°C° 0 mm 1 m/S 749 mmHg 78%

18 April, Sonntag

Zeit Temperatur Niederschläge Wind Luftdruck Luftfeuchtigkeit
00:00 +8°C° 0 mm 1 m/S 749 mmHg 77%
01:00 +7°C° 0 mm 0 m/S 749 mmHg 76%
02:00 +7°C° 0 mm 0 m/S 749 mmHg 76%
03:00 +7°C° 0 mm 0 m/S 749 mmHg 75%
04:00 +7°C° 0 mm 0 m/S 749 mmHg 75%
05:00 +7°C° 0 mm 0 m/S 749 mmHg 75%
06:00 +7°C° 0 mm 0 m/S 749 mmHg 71%
07:00 +8°C° 0 mm 0 m/S 749 mmHg 67%
08:00 +9°C° 0 mm 0 m/S 749 mmHg 63%
09:00 +9°C° 0 mm 0 m/S 749 mmHg 60%
10:00 +10°C° 0 mm 0 m/S 749 mmHg 56%
11:00 +11°C° 0 mm 0 m/S 749 mmHg 52%
12:00 +12°C° 0 mm 1 m/S 749 mmHg 51%
13:00 +12°C° 0 mm 1 m/S 749 mmHg 50%
14:00 +13°C° 0 mm 1 m/S 749 mmHg 49%
15:00 +13°C° 0 mm 1 m/S 749 mmHg 50%
16:00 +13°C° 0 mm 1 m/S 749 mmHg 50%
17:00 +12°C° 0 mm 2 m/S 749 mmHg 51%
18:00 +12°C° 0 mm 1 m/S 749 mmHg 53%
19:00 +11°C° 0 mm 1 m/S 749 mmHg 54%
20:00 +11°C° 0 mm 1 m/S 749 mmHg 55%
21:00 +10°C° 0 mm 1 m/S 749 mmHg 56%
22:00 +10°C° 0 mm 1 m/S 749 mmHg 58%
23:00 +9°C° 0 mm 2 m/S 749 mmHg 59%

19 April, Montag

Zeit Temperatur Niederschläge Wind Luftdruck Luftfeuchtigkeit
00:00 +8°C° 0 mm 2 m/S 749 mmHg 62%
01:00 +7°C° 0 mm 2 m/S 749 mmHg 64%
02:00 +6°C° 0 mm 2 m/S 749 mmHg 67%
03:00 +6°C° 0 mm 2 m/S 749 mmHg 70%
04:00 +6°C° 0 mm 2 m/S 749 mmHg 72%
05:00 +6°C° 0 mm 1 m/S 749 mmHg 75%
06:00 +8°C° 0 mm 1 m/S 749 mmHg 70%
07:00 +10°C° 0 mm 1 m/S 750 mmHg 65%
08:00 +12°C° 0 mm 2 m/S 750 mmHg 60%
09:00 +13°C° 0 mm 2 m/S 750 mmHg 56%
10:00 +13°C° 0 mm 3 m/S 750 mmHg 52%
11:00 +16°C° 0 mm 3 m/S 750 mmHg 49%
12:00 +15°C° 0 mm 4 m/S 749 mmHg 46%
13:00 +17°C° 0 mm 4 m/S 749 mmHg 44%
14:00 +17°C° 0 mm 5 m/S 748 mmHg 42%
15:00 +16°C° 0 mm 5 m/S 748 mmHg 45%
16:00 +15°C° 0 mm 6 m/S 748 mmHg 48%
17:00 +15°C° 0 mm 6 m/S 748 mmHg 52%
18:00 +12°C° 0 mm 7 m/S 748 mmHg 59%
19:00 +10°C° 0 mm 8 m/S 748 mmHg 66%
20:00 +9°C° 0 mm 8 m/S 748 mmHg 73%
21:00 +7°C° 0 mm 8 m/S 748 mmHg 74%
22:00 +6°C° 0 mm 8 m/S 748 mmHg 75%
23:00 +5°C° 0 mm 8 m/S 747 mmHg 77%
Mehr zeigen

Wir brauchen deine Erlaubnis

Meteoprog und unser Service Anbieter werden persönliche Daten aufbewahren, so wie Cookies, Geräte Bezeichnung oder ähnliche Technologien von deinem Gerät und Prozess, so wie Persönliche Daten Inhalte und Werbungen, genauso wie social Media und den Verkehr zu analysieren.

  • Aufbewahrung und/oder Zugang zu deiner Geräte Informationen.

    Cookies, Geräte Bezeichnung oder andere Informationen, können aufbewahrt oder Zugang zu deinem Gerät erhalten, für den Grund, der oben angegeben wird.

  • Personalisierte Werbung und Inhalte, Messungen, Einblick in das Publikum und Produkt Entwicklung.

    Werbungen und Inhalte können personalisiert werden, basierend auf ein Profil. Mehr Daten können besser personalisierte Werbungen und Inhalte hinzufügen. Werbung und Inhalte können gezeigt und gemessen werden. Einblicke über das Publikum, welche die Werbung gesehen haben und den Inhalt, können abgeleitet werden. So wie Daten können genutzt werden, um es zu verbessern oder die Benutzer Erfahrung zu verbessern das System und die Software.

Wenn du “Ich stimme zu” klickst, erlaubst du uns, die Cookies zu benutzen die Geräte Bezeichnung, den Web oder ähnliche Technologien zu benutzen. Deine Settings, können in deinem Gerät bei deinem Browser geändert werden.

Für den bestimmten Zweck, berechtigten Interessen beruhen darauf, mehr als auf den Inhalt. Du kannst mehr darüber in unseren Privaten und Cookie Politik lesen.